Hourly Data Report for February 02, 2005

TORONTO CITY
ONTARIO

43°40'00.000" N
79°24'00.000" W
112.50 m
6158355
71508
XTO

Download Data

Hourly Data (February 2005)
Hourly Data Report for February 2, 2005
TIME
LST
Temp Definition
°C
Dew Point Definition
°C
Rel Hum Definition
%
Precip. Amount Definition
mm

Wind Dir Definition
10's deg

Wind Spd Definition
km/h
Visibility Definition
km
Stn Press Definition
kPa
Hmdx Definition


Wind Chill Definition


Weather Definition


00:00 -3.6 -5.8 85   LegendMM LegendMM   101.98     LegendNANA
01:00 -4.2 -6.0 87   LegendMM LegendMM   102.00     LegendNANA
02:00 -3.9 -5.6 88   LegendMM LegendMM   101.95     LegendNANA
03:00 -4.5 -6.7 85   LegendMM LegendMM   101.90     LegendNANA
04:00 -4.6 -6.8 85   LegendMM LegendMM   101.90     LegendNANA
05:00 -4.9 -7.1 85   LegendMM LegendMM   101.93     LegendNANA
06:00 -5.1 -7.6 83   LegendMM LegendMM   101.91     LegendNANA
07:00 -5.5 -7.5 86   LegendMM LegendMM   101.95     LegendNANA
08:00 -4.7 -6.7 86   LegendMM LegendMM   101.97     LegendNANA
09:00 -3.5 -6.1 82   LegendMM LegendMM   101.95     LegendNANA
10:00 -2.2 -5.8 76   LegendMM LegendMM   101.96     LegendNANA
11:00 -0.9 -5.1 73   LegendMM LegendMM   101.92     LegendNANA
12:00 -0.7 -4.3 77   LegendMM LegendMM   101.88     LegendNANA
13:00 -0.7 -4.7 74   LegendMM LegendMM   101.83     LegendNANA
14:00 0.0 -4.4 72   LegendMM LegendMM   101.72     LegendNANA
15:00 -0.4 -4.1 76   LegendMM LegendMM   101.65     LegendNANA
16:00 -0.5 -3.9 78   LegendMM LegendMM   101.60     LegendNANA
17:00 -0.7 -3.5 81   LegendMM LegendMM   101.57     LegendNANA
18:00 -0.8 -3.0 85   LegendMM LegendMM   101.52     LegendNANA
19:00 -0.9 -3.2 84   LegendMM LegendMM   101.55     LegendNANA
20:00 -1.1 -3.6 83   LegendMM LegendMM   101.53     LegendNANA
21:00 -0.8 -3.3 83   LegendMM LegendMM   101.47     LegendNANA
22:00 -0.8 -3.3 83   LegendMM LegendMM   101.44     LegendNANA
23:00 -1.3 -3.8 83   LegendMM LegendMM   101.37     LegendNANA

Notes on Data Quality.

Legend

  • E = Estimated
  • M = Missing
  • NA = Not Available*
  • [empty] = Indicates an unobserved value
Date modified: